Location: Grand Mazuras
(45.9128°N, 1.7636°E)
Time: 05:35:57
(UTC+00:00)

Cosmos 676 Rocket - Pass Details

Date: 18 April 2021
Orbit: 755 x 783 km, 74.0° (Epoch: 15 May)

Event Time Altitude Azimuth Distance (km) Brightness Sun altitude
Exits shadow 22:07:09 66° 282° (WNW) 829 4.2 -28.2°
Maximum altitude 22:07:19 66° 293° (WNW) 827 4.2 -28.3°
Drops below altitude 10° 22:12:29 10° 17° (NNE) 2,292 7.0 -28.7°
Sets 22:14:53 0° 20° (NNE) 3,220 7.8 -28.9°
